Wind_Speed
9 5 8 10 8 9 12 10 13 10 6 9 11 10 11 13 5 7 10 10 11 12 13 14 12 11 10 9 10 10 9 9 9 9 10 11 11 12 12 12 12 12 11 11 12 12 13 15 16 16 17 16 14 10 11 11 11 11 11 12 11 10 8 4 7 12 13 14 17 19 15 11 10 10 14 18 18 18 21 22 21 19 19 20 21 22 21
6 5 7 10 9 9 10 8 2 2 5 10 11 12 14 11 2 14 17 13 11 11 12 13 12 11 10 8 9 10 10 9 9 9 10 11 11 12 12 12 12 12 12 12 13 12 11 13 14 13 13 13 14 13 13 13 15 14 13 14 14 12 11 8 3 1 3 7 12 15 16 16 13 9 9 10 11 10 12 17 20 20 20 19 19 21 22
6 6 7 7 10 10 10 8 4 3 8 10 9 10 11 3 8 13 15 15 12 10 11 13 11 10 9 8 7 9 10 9 8 9 10 10 11 11 12 11 11 11 12 13 13 13 12 13 12 11 12 12 12 14 14 14 16 16 15 15 13 11 11 9 7 6 6 4 1 4 7 10 12 11 10 8 8 8 7 8 11 14 18 20 20 19 21
6 7 7 7 9 8 10 11 7 5 8 10 7 5 5 1 8 11 12 12 10 10 12 12 11 10 10 9 7 7 8 8 8 9 10 10 11 11 11 11 11 11 11 12 13 13 13 13 13 12 12 11 12 13 14 16 17 17 17 15 11 10 12 13 10 9 8 9 8 6 4 2 2 6 10 11 13 12 9 9 10 10 13 17 20 21 20
7 9 7 4 5 6 8 9 9 10 10 9 6 2 7 4 7 8 7 8 9 11 13 12 11 11 10 9 8 6 6 7 7 8 9 10 10 10 11 11 10 10 11 12 12 13 13 13 13 13 12 12 13 13 14 17 17 15 16 16 13 12 13 14 12 11 11 10 10 9 8 7 5 4 6 9 12 13 14 13 13 14 15 15 17 21 23
7 6 5 3 5 6 4 3 6 5 5 6 6 3 5 6 6 2 2 8 12 12 12 12 11 11 10 9 8 7 6 5 6 7 8 9 10 10 10 11 11 11 11 12 12 12 13 13 13 14 13 12 13 13 14 15 15 14 15 15 14 14 15 15 14 14 13 11 10 9 8 9 9 9 8 7 10 12 14 14 15 17 19 19 18 19 22
4 2 5 4 6 3 2 6 8 8 7 5 3 4 3 6 10 6 5 11 14 11 10 11 10 10 11 11 10 9 8 6 4 6 7 8 9 9 9 9 10 11 12 12 11 11 11 12 13 13 13 12 12 12 12 12 12 13 14 14 13 13 14 15 15 15 14 11 8 7 7 8 9 9 8 7 9 11 14 15 15 17 19 21 23 22 21
4 3 4 5 2 3 4 5 5 6 5 3 5 5 2 4 9 9 9 12 11 10 11 11 10 10 10 8 6 7 7 5 3 5 6 6 8 8 9 9 10 11 12 11 11 10 10 12 12 12 12 12 12 12 11 10 10 11 12 13 13 13 14 15 15 15 13 10 8 8 8 7 7 8 7 7 8 10 12 14 16 19 21 22 25 27 25
5 6 5 2 2 3 2 2 2 2 1 1 1 2 2 6 7 8 11 11 11 11 11 10 10 9 9 6 4 6 8 5 3 6 7 6 7 8 9 10 11 11 12 11 9 9 10 12 12 11 11 11 11 12 11 10 11 11 12 13 12 12 13 14 15 14 12 10 10 9 9 8 8 7 6 7 8 10 12 14 15 19 21 22 23 24 26
4 5 5 4 4 4 3 5 5 4 3 4 4 1 4 7 8 9 11 12 11 11 11 11 10 9 7 6 5 6 8 7 5 6 6 6 8 8 8 9 10 11 11 10 9 9 10 12 11 10 10 10 10 11 12 11 11 12 12 13 12 11 11 10 11 12 12 12 11 10 9 9 10 10 9 7 8 10 12 13 15 16 17 18 19 20 22
4 5 6 5 3 1 3 7 6 4 3 4 3 2 5 8 10 11 12 12 11 10 10 10 10 8 6 5 6 8 8 6 6 5 5 7 7 7 8 9 10 10 10 8 9 9 11 12 11 10 10 10 10 11 11 11 10 11 12 11 11 11 10 8 8 9 10 9 10 10 9 10 11 11 11 9 8 10 11 13 15 16 16 16 17 18 20
6 5 6 4 0 3 5 6 5 4 4 3 3 5 5 9 12 12 12 13 13 11 10 9 7 5 4 3 5 8 9 7 6 4 5 6 6 7 9 10 10 9 8 9 10 11 12 12 11 10 10 10 10 10 10 10 10 11 11 11 11 11 11 10 9 9 7 7 9 10 10 11 11 11 12 11 10 10 11 12 14 16 17 17 18 19 20
7 7 6 4 2 5 6 6 5 4 3 2 4 3 2 6 10 10 11 12 11 8 7 7 5 3 5 6 4 5 7 6 4 4 5 5 6 7 9 9 9 8 9 10 10 11 12 11 11 11 11 10 10 10 9 9 10 11 10 10 11 12 11 11 10 10 9 9 11 12 12 13 11 10 11 12 13 13 12 12 13 15 17 18 19 21 22
6 6 6 5 2 4 4 5 5 3 1 2 2 1 1 3 6 5 2 5 8 6 2 4 7 6 6 7 6 6 6 4 3 4 5 5 6 7 7 7 8 8 9 10 10 11 12 12 12 12 11 11 10 10 10 9 10 10 9 9 10 11 12 11 10 11 10 10 11 12 13 15 14 13 12 13 14 14 13 13 14 15 16 17 19 20 22
5 6 6 5 1 4 5 4 3 1 1 1 4 3 4 6 7 5 5 4 5 7 3 5 8 6 5 6 5 5 4 4 3 4 5 5 5 6 6 7 9 9 8 9 10 11 11 11 12 12 12 12 11 10 10 10 10 10 10 10 11 11 10 10 9 10 10 11 11 11 12 13 15 16 16 15 16 15 14 15 15 15 16 17 19 21 22
4 5 3 2 1 5 5 3 2 3 3 4 4 3 5 7 6 4 4 6 6 5 3 3 5 4 4 4 4 4 3 3 3 4 4 5 5 5 6 7 9 9 8 8 9 9 9 10 11 11 11 11 11 11 11 11 11 11 11 11 11 10 9 10 10 11 10 11 11 11 12 13 13 15 16 16 17 18 17 17 17 16 16 17 17 20 22
4 3 1 2 3 5 5 3 4 6 6 5 5 4 5 5 4 3 3 4 5 5 4 3 3 2 2 3 4 4 3 3 4 4 4 4 5 6 6 8 9 9 9 9 9 9 9 10 11 11 11 11 11 11 12 12 12 12 11 11 10 10 11 11 12 12 11 11 11 12 13 13 14 14 14 15 17 19 19 17 15 15 16 16 16 17 19
4 4 2 4 5 5 5 5 6 7 6 5 6 4 4 5 5 3 4 6 6 4 2 2 2 3 3 3 3 3 3 3 4 4 4 4 5 5 6 7 9 9 9 9 9 10 11 11 11 11 11 11 11 11 11 12 12 12 12 11 11 11 12 12 12 12 12 12 12 13 14 15 16 16 16 17 18 19 18 16 14 14 15 15 13 12 11
4 4 4 6 6 6 6 6 6 7 6 5 5 4 3 4 6 5 5 7 8 6 5 4 3 3 4 3 3 3 2 2 3 3 3 4 4 4 5 6 7 8 8 9 10 11 11 12 12 12 11 11 11 11 12 12 12 12 11 12 11 11 12 13 13 13 13 13 14 14 15 15 16 16 17 18 16 14 12 12 12 13 12 11 11 11 13
6 4 1 1 4 5 5 6 5 6 6 5 4 3 3 5 7 7 7 7 7 6 6 5 4 3 4 3 3 2 2 2 2 3 3 3 4 4 5 6 6 7 8 9 10 11 11 11 11 12 12 12 11 12 12 12 12 12 11 12 12 12 13 13 14 14 14 14 14 15 14 14 14 15 16 15 13 11 11 12 13 14 12 12 14 15 17
7 7 3 2 2 5 5 6 6 5 6 6 5 4 4 5 7 8 7 6 6 6 6 6 5 5 4 4 3 2 1 1 1 2 3 3 4 5 6 6 7 8 9 10 11 11 11 11 12 12 12 12 12 12 12 12 12 12 12 12 13 13 13 13 13 13 13 13 13 13 13 14 14 14 15 14 13 14 14 14 14 14 15 18 21 21 22
5 2 3 5 3 4 2 3 6 6 6 7 8 7 6 6 7 8 8 7 6 5 6 6 6 4 4 3 3 2 1 0 0 1 3 4 5 5 7 8 8 9 10 10 11 12 11 11 12 13 13 13 13 13 13 14 14 14 14 14 14 13 13 13 13 13 13 14 15 16 17 18 18 17 17 17 19 21 21 20 20 21 24 26 26 23 24
3 1 3 4 4 3 1 2 6 7 5 6 8 9 9 9 9 8 9 9 7 6 6 5 4 4 4 4 3 2 2 1 1 2 3 4 5 6 7 7 8 8 9 10 11 12 12 12 12 13 13 14 14 15 15 15 15 16 16 15 15 14 13 13 14 14 14 15 15 16 17 18 19 20 21 23 25 26 27 27 27 27 26 26 23 19 20
5 3 1 0 3 6 4 2 4 6 6 6 7 7 9 10 10 10 10 10 9 8 7 6 7 8 7 6 5 4 3 1 2 3 3 4 5 6 6 6 7 8 8 9 10 11 12 13 13 14 14 15 15 16 16 16 16 16 16 16 16 16 15 15 15 15 14 15 16 17 17 18 19 19 21 22 23 23 23 23 23 22 21 21 20 19 20
6 6 4 3 5 8 8 7 7 7 6 7 8 8 9 11 12 13 11 9 9 10 9 8 10 9 7 6 7 5 3 3 3 3 5 5 6 7 6 7 8 8 9 9 10 11 12 14 14 15 15 15 15 16 16 16 17 18 18 18 18 18 18 17 17 16 16 16 17 18 18 18 18 19 19 20 20 21 21 20 20 21 22 23 22 21 20
7 7 7 8 8 8 8 9 10 8 8 9 9 9 11 11 11 13 13 11 12 12 10 9 9 7 6 8 8 5 4 5 4 3 5 7 7 7 8 8 9 10 10 11 11 12 13 14 15 15 15 15 16 16 16 17 18 19 20 20 21 20 20 20 20 19 18 17 17 17 17 18 18 19 19 19 20 21 21 20 20 21 21 20 20 19 19
6 6 7 8 8 8 8 8 9 9 9 8 7 8 14 17 14 13 14 13 13 12 10 10 9 5 3 5 6 5 6 6 4 3 6 7 7 8 9 11 11 12 12 12 12 12 13 13 14 15 15 15 16 16 17 18 19 20 21 22 22 22 22 21 21 20 19 17 17 17 18 19 19 19 20 21 21 21 21 21 21 21 21 20 20 20 21
4 5 7 8 8 8 7 8 10 10 10 9 9 9 10 15 15 12 12 12 13 13 12 11 9 5 4 8 9 6 5 5 5 6 7 7 8 10 11 12 13 13 13 13 13 13 13 14 14 14 14 15 16 17 17 18 18 19 20 21 22 23 22 21 21 20 19 19 18 18 19 20 20 20 21 21 21 21 21 22 22 21 22 21 21 21 22
3 4 6 8 8 9 9 8 9 10 10 11 11 10 9 12 14 12 11 12 13 12 12 11 9 8 10 11 9 5 3 4 6 7 7 7 9 11 12 12 13 13 13 13 13 13 14 14 14 14 15 15 16 17 18 18 18 19 20 21 21 22 22 22 21 21 20 20 20 20 21 22 22 22 22 21 21 21 21 21 22 22 22 23 23 24 24
4 4 6 7 8 9 10 8 8 8 9 9 9 8 10 12 11 10 9 11 12 12 13 13 12 12 12 8 5 5 4 3 3 5 7 9 10 11 11 11 12 12 12 13 13 14 15 15 15 16 16 16 17 18 18 18 18 19 20 21 21 21 21 21 22 21 21 22 22 23 23 23 23 23 23 23 22 21 21 21 21 22 22 23 23 22 21
6 6 7 7 7 8 9 8 7 7 7 8 7 6 7 8 7 6 5 6 6 6 10 13 13 12 9 7 6 5 3 2 3 5 8 9 10 11 11 11 11 11 12 13 14 14 15 16 16 16 16 16 17 18 19 18 18 19 20 21 22 22 21 22 22 21 20 21 23 24 23 23 23 24 24 24 23 21 21 20 20 20 21 21 22 21 20
6 7 7 7 7 7 7 7 7 6 6 8 8 6 4 4 3 3 3 4 5 6 9 12 11 7 8 8 6 4 3 3 3 6 9 9 9 9 10 10 10 11 12 13 13 14 15 15 15 16 16 16 17 17 18 18 18 19 20 21 21 22 21 22 22 21 20 21 22 22 22 22 23 23 24 24 24 24 23 23 22 22 22 22 23 23 22
5 6 6 7 8 8 8 7 6 4 4 6 5 2 2 3 4 4 3 2 4 5 7 9 8 9 10 8 6 4 2 4 5 6 8 8 8 8 9 9 10 11 12 13 14 14 15 15 15 16 16 15 16 17 18 19 19 20 21 22 22 21 21 21 22 22 22 22 23 23 22 22 23 23 24 24 24 24 23 23 24 24 24 24 25 25 23
5 6 6 7 7 8 8 7 5 3 3 3 2 4 5 7 8 6 3 3 3 4 5 2 5 10 9 6 3 1 4 5 4 5 6 7 7 8 9 10 11 11 12 13 14 14 14 13 14 15 15 15 17 18 18 19 20 21 21 22 22 21 20 21 21 21 22 22 23 24 25 24 23 23 23 23 23 23 23 23 23 23 23 23 23 23 22
8 7 8 8 8 7 8 8 6 5 5 5 4 5 5 8 10 8 3 2 3 4 5 8 7 6 6 5 2 1 3 3 3 4 5 6 7 8 9 10 10 10 11 12 11 12 12 13 14 16 17 17 18 19 19 20 21 21 22 22 22 22 22 21 21 21 22 22 21 22 24 25 25 25 24 25 25 25 25 25 25 24 24 23 23 22 22
10 9 8 9 9 8 8 7 6 6 6 6 5 6 6 9 12 12 9 5 2 2 5 6 4 4 4 3 2 2 3 3 4 4 5 5 6 7 8 9 10 10 10 10 10 11 13 14 16 18 19 18 18 19 19 20 21 22 22 22 23 23 23 22 21 20 21 22 22 23 25 27 28 27 27 26 26 25 26 27 28 27 26 25 24 23 23
12 11 10 10 10 9 7 6 5 5 5 4 4 6 9 10 11 11 11 11 11 7 6 5 4 4 4 1 1 1 2 3 4 4 5 5 6 7 8 8 9 9 8 9 11 14 15 15 17 18 18 18 18 18 19 20 21 22 23 23 23 23 23 23 22 22 22 22 23 23 24 25 25 24 24 23 23 23 23 25 27 27 25 24 23 22 21
13 13 11 11 11 9 6 4 5 5 5 5 5 5 6 6 7 10 13 13 10 8 9 7 5 4 3 1 1 2 2 3 3 4 5 6 6 7 7 7 7 7 7 9 12 14 15 16 17 17 17 16 17 17 18 19 21 22 22 22 23 23 23 23 23 23 23 22 22 22 22 22 22 22 22 21 20 21 22 24 27 28 26 22 19 18 18
12 12 11 12 12 10 7 6 6 5 6 7 8 6 3 4 8 12 13 11 10 10 9 7 5 3 2 1 1 1 1 3 4 4 5 5 5 6 6 5 5 6 8 10 12 14 15 15 16 15 14 14 15 17 17 19 21 22 22 22 23 23 23 23 23 23 23 22 22 22 22 21 22 23 23 22 20 21 23 23 25 27 26 21 16 13 12
12 12 12 12 13 11 8 6 6 7 9 10 11 10 9 11 12 12 13 12 10 9 9 7 5 3 2 1 0 1 2 3 3 3 4 4 5 5 5 4 6 8 9 11 12 14 14 14 14 13 13 14 15 17 18 20 21 22 22 21 21 21 21 21 22 23 22 22 22 22 22 21 22 23 23 22 21 22 22 21 21 22 22 18 13 9 9
13 14 13 12 13 10 3 1 3 6 10 12 14 15 16 15 12 11 12 12 10 8 7 7 5 4 3 2 2 1 2 2 2 2 3 4 5 5 5 5 7 9 10 12 13 13 13 13 13 13 14 15 17 18 20 22 21 20 19 19 19 20 20 20 21 22 22 22 22 22 22 22 23 23 22 20 19 18 18 17 17 16 15 12 9 9 9
15 15 14 14 14 9 3 5 5 6 8 12 15 16 16 14 13 13 14 13 11 8 8 8 7 5 3 3 2 2 2 1 1 2 2 2 3 4 5 6 8 9 10 12 13 12 12 12 12 14 16 18 19 20 21 21 18 17 17 17 17 18 18 19 19 20 21 22 22 22 22 22 22 21 20 18 16 15 15 14 13 12 10 9 9 9 9
16 15 13 14 14 11 7 10 10 7 7 12 17 17 16 14 14 14 15 13 11 10 10 9 7 6 4 3 2 2 2 1 1 2 3 2 2 2 4 6 8 9 11 12 12 12 12 12 13 15 18 19 20 20 20 17 15 15 16 16 16 17 17 18 19 20 21 21 21 21 20 20 19 18 17 15 14 14 13 13 12 11 10 9 9 9 8
16 13 11 13 14 12 10 10 11 8 6 9 15 16 15 14 15 15 14 13 11 11 10 9 7 6 5 4 3 2 2 2 2 3 4 3 3 4 5 6 8 10 11 12 12 11 11 12 15 17 19 19 19 19 16 14 13 15 16 16 16 16 17 18 19 20 20 21 20 19 17 17 17 16 15 14 13 12 11 10 10 10 10 9 9 9 8
14 10 9 13 15 12 10 10 14 15 13 12 13 13 13 14 15 14 13 13 12 11 10 8 7 6 5 4 3 3 3 3 3 3 3 4 4 5 5 6 8 10 11 11 11 10 10 13 17 18 19 19 18 16 14 14 14 15 16 16 16 16 16 17 18 18 19 19 19 18 17 16 16 16 15 14 13 12 11 10 10 10 9 8 8 8 8
9 7 9 13 13 8 6 5 8 16 18 15 13 12 13 15 15 13 12 13 12 11 9 8 7 6 5 4 3 2 3 4 4 4 3 3 4 4 4 5 7 8 9 10 10 10 11 14 17 18 18 17 16 14 14 14 14 14 15 15 16 15 16 16 17 17 18 18 18 17 17 17 16 16 16 15 14 13 12 12 11 10 9 8 7 7 7
7 7 10 10 4 3 3 5 12 18 17 13 11 12 13 14 14 13 13 12 11 10 9 8 7 6 5 3 3 2 3 4 4 3 3 4 4 4 4 5 6 8 9 10 9 10 12 14 16 17 17 16 14 13 14 14 13 13 14 14 14 14 15 15 16 16 16 16 17 17 17 17 17 18 17 16 15 13 12 11 11 10 9 8 7 6 6
6 6 5 3 3 7 9 11 14 15 14 13 13 14 15 15 14 13 12 12 11 10 9 7 7 6 5 3 3 3 2 2 3 3 3 4 5 6 5 5 6 8 10 10 9 9 12 14 15 16 16 15 13 13 13 13 12 13 13 14 14 14 14 14 15 15 15 15 15 16 16 16 17 19 19 18 16 14 12 11 10 10 9 8 7 6 5
5 5 3 1 7 10 12 12 11 10 12 14 14 13 15 16 15 13 12 11 10 9 9 8 7 6 4 2 2 3 2 2 3 3 3 4 5 6 5 5 5 7 9 9 9 10 11 12 14 15 15 14 13 13 13 12 12 12 13 13 14 15 15 15 15 15 15 14 14 14 14 15 16 17 18 17 16 15 14 13 11 10 9 8 7 5 5
9 8 8 7 8 11 12 11 8 8 12 15 14 12 13 14 14 12 12 11 11 10 8 7 6 5 4 3 3 3 3 2 1 2 3 4 5 6 6 5 5 6 7 8 9 10 10 11 12 14 14 13 13 12 12 12 11 12 13 13 14 15 15 15 15 15 15 15 15 14 14 14 15 16 17 17 16 16 16 15 13 12 10 8 7 6 5
11 11 11 11 10 9 9 9 11 12 14 15 15 14 13 13 12 11 11 11 10 9 8 6 5 4 3 3 3 3 3 3 0 2 3 4 5 6 5 4 5 5 6 7 8 9 10 11 11 12 12 12 12 12 12 12 12 12 12 12 13 14 15 16 15 15 16 16 15 16 16 16 16 16 17 17 17 17 17 17 16 15 13 10 8 7 6
11 10 8 7 7 6 4 6 9 13 14 14 13 12 11 10 10 9 9 9 8 7 7 6 4 3 3 2 2 2 2 1 0 2 3 3 4 5 5 4 5 5 5 5 6 8 9 10 10 10 10 11 11 11 11 11 12 12 12 11 12 13 14 15 15 16 16 16 16 16 17 17 17 17 17 18 17 16 16 16 16 16 15 13 11 10 9
Wind_Direction
235 274 298 291 287 303 312 279 226 221 252 262 261 261 265 274 269 142 149 153 151 153 151 145 139 132 124 116 113 113 107 105 107 110 109 99 87 82 77 76 76 74 75 72 63 52 41 41 40 39 40 22 1 24 56 53 49 42 32 38 48 61 79 120 225 248 247 238 245 252 256 269 276 256 235 226 223 218 207 203 208 217 223 217 206 204 211
258 256 275 292 290 292 314 316 249 227 274 263 259 254 256 271 146 138 150 151 152 157 150 144 137 128 124 119 117 118 107 96 97 98 98 96 91 85 80 79 80 78 76 80 81 77 69 63 52 42 45 30 6 14 35 43 42 36 32 39 47 63 79 88 106 205 209 223 242 242 231 229 238 267 273 241 239 253 233 215 212 212 220 227 218 207 207
276 257 254 270 278 287 301 295 273 260 271 272 270 261 257 250 108 134 151 147 146 152 141 133 131 131 129 117 112 119 111 98 93 88 86 88 88 85 80 77 80 82 78 72 73 76 77 78 73 60 51 40 27 25 26 34 40 36 34 39 41 48 60 57 33 25 60 91 207 253 241 231 233 261 281 259 252 281 292 275 251 227 222 229 231 223 212
261 247 237 244 259 276 282 275 267 251 259 267 265 280 311 92 132 144 153 150 144 140 134 132 135 137 132 117 105 109 110 102 94 90 87 86 85 85 83 76 70 74 78 72 65 63 65 70 74 72 61 48 42 38 32 35 40 40 37 35 27 23 36 44 36 16 21 35 35 27 4 345 255 259 262 251 245 244 250 277 281 260 242 235 235 238 231
258 237 217 233 260 259 258 265 263 241 239 254 252 56 45 76 153 158 163 155 143 142 143 143 143 143 142 134 122 112 108 99 89 85 84 83 82 80 81 78 70 64 68 69 66 63 59 56 57 62 61 54 49 44 41 40 43 47 47 39 28 19 24 35 37 29 25 19 17 20 9 358 356 321 281 260 252 246 242 247 249 249 250 243 237 240 242
256 224 166 188 244 241 244 348 335 280 244 258 253 154 112 133 137 154 200 144 140 149 151 148 147 145 142 137 130 127 118 99 83 79 74 76 78 75 72 71 68 62 60 61 62 66 67 61 53 51 53 57 58 53 46 43 44 52 53 44 36 30 29 32 30 26 27 16 2 2 356 338 330 331 324 290 265 261 258 256 255 253 251 248 245 244 245
258 144 130 211 239 237 49 43 25 16 21 13 44 89 130 137 122 133 170 146 143 153 150 142 133 128 136 138 137 137 123 98 92 89 75 69 72 74 72 68 62 56 54 53 49 51 65 68 60 51 47 49 56 57 53 49 51 57 56 49 44 35 31 33 28 24 28 25 8 355 348 337 330 330 326 298 270 262 260 260 263 264 260 255 254 254 253
244 193 191 234 231 87 64 56 40 24 23 61 97 92 72 100 120 152 160 145 145 147 144 138 125 128 143 137 122 126 117 94 90 95 84 71 65 65 70 72 67 53 44 45 41 37 48 57 53 48 47 46 47 47 47 52 59 63 59 54 50 41 31 29 28 25 25 27 21 14 7 357 349 342 326 299 274 261 261 263 261 260 258 254 250 248 248
250 235 226 210 142 155 163 123 80 13 356 100 129 206 160 115 133 162 151 145 153 146 139 139 134 139 150 144 140 141 131 126 102 87 87 82 69 61 60 67 70 55 36 31 32 31 41 47 40 37 42 45 47 42 35 40 53 61 59 53 49 45 34 25 22 20 16 16 19 20 13 2 0 360 341 311 291 277 273 270 264 261 259 257 254 251 249
272 258 244 219 206 224 195 137 104 57 40 42 26 289 173 136 143 154 143 142 149 143 143 152 152 151 153 161 175 151 137 147 140 108 97 85 71 59 52 54 57 45 27 19 19 23 40 42 27 25 34 35 41 39 27 28 43 51 51 46 41 41 38 28 21 15 12 13 14 13 7 355 353 355 349 335 322 309 295 282 274 271 268 264 262 260 257
274 265 254 243 239 315 82 103 94 73 70 69 62 232 203 159 152 153 146 147 155 159 160 161 165 176 183 177 166 149 138 129 108 90 74 62 54 48 48 46 38 26 14 10 11 17 35 32 12 17 32 29 33 33 18 16 31 40 41 36 30 28 24 20 18 12 9 9 5 2 358 348 346 350 345 334 329 329 318 296 282 276 273 271 269 266 265
262 255 256 262 261 93 105 112 108 98 93 107 200 221 193 157 157 163 164 165 168 172 168 162 171 190 182 151 147 148 136 108 83 67 53 46 32 30 39 33 20 12 13 14 9 11 23 18 2 11 24 22 28 27 12 11 20 24 28 26 20 17 11 4 4 2 356 353 351 354 354 346 341 342 338 330 326 330 325 307 292 284 279 279 280 278 277
243 242 248 251 110 115 131 130 113 100 107 167 205 200 129 139 151 164 182 184 173 169 176 171 159 127 109 107 96 96 100 97 88 67 55 48 29 27 33 26 15 15 18 16 8 4 8 3 358 7 12 12 19 16 8 12 11 8 12 11 7 4 357 352 354 352 347 342 341 344 348 345 336 326 327 329 326 324 320 312 303 295 291 290 289 288 286
247 249 249 240 155 117 122 114 102 101 171 194 155 90 63 99 106 108 211 208 171 163 169 124 107 96 109 117 103 84 85 90 87 61 47 42 32 26 26 31 33 26 18 14 7 360 358 357 357 1 1 5 10 4 360 4 360 356 360 357 354 351 344 342 345 344 342 339 334 332 333 334 330 320 316 320 321 318 314 310 304 297 296 296 292 290 287
247 245 248 255 215 130 132 131 124 151 279 112 107 99 80 81 87 73 10 8 131 150 152 105 97 89 91 92 86 90 87 79 88 77 52 40 31 20 20 34 35 28 18 13 4 355 354 358 360 359 358 359 359 354 355 358 353 349 348 342 338 337 335 336 337 333 332 329 323 319 316 317 319 318 315 315 316 313 307 305 304 299 296 293 288 285 284
255 242 240 267 155 133 141 161 128 91 98 116 123 124 100 87 91 100 52 40 74 106 117 102 92 89 94 93 97 112 99 76 88 85 64 48 27 14 21 29 27 21 13 5 357 352 357 1 1 359 357 355 352 349 350 350 346 341 335 330 330 331 331 331 327 321 317 313 308 306 305 302 302 303 306 308 309 308 304 301 302 300 296 292 286 282 282
294 309 14 120 152 149 145 131 97 99 112 118 109 110 119 114 110 124 124 104 87 79 81 98 108 124 137 127 120 118 102 85 81 68 56 47 26 15 18 21 18 10 359 354 352 353 359 1 358 358 356 350 346 346 345 343 338 332 328 327 327 326 323 318 314 310 307 305 304 301 300 299 293 290 292 293 295 298 298 294 290 289 290 288 281 276 278
285 282 234 158 153 157 154 138 120 118 126 121 112 118 129 133 143 150 135 129 124 116 125 154 170 167 145 130 126 114 87 79 80 70 58 49 32 18 15 12 7 358 352 353 355 354 354 355 352 351 350 345 343 342 339 335 331 328 329 328 323 319 317 313 310 309 305 302 301 298 296 293 287 281 278 274 273 276 279 281 282 284 289 295 298 298 299
273 253 203 174 176 184 176 158 138 135 147 147 146 166 169 144 146 139 122 129 139 143 153 176 189 162 145 145 141 122 99 82 76 71 64 51 36 21 12 3 358 354 352 352 351 348 348 348 346 344 343 340 339 337 334 330 329 330 332 328 321 317 315 311 307 303 297 293 293 292 291 288 284 281 277 271 265 266 274 285 293 295 302 319 335 341 340
248 253 252 175 199 201 193 185 168 159 170 172 162 179 185 155 147 141 132 138 149 153 161 174 181 170 164 167 159 141 132 115 87 63 45 35 22 10 4 359 356 354 349 345 345 343 342 340 338 337 336 334 333 333 332 331 332 333 331 325 320 316 310 306 301 296 290 286 283 281 281 282 281 283 285 284 283 286 292 295 298 301 309 320 324 321 315
248 255 292 334 233 214 217 227 221 197 179 173 175 192 193 165 153 149 146 154 169 174 167 163 170 179 174 163 158 151 105 76 59 36 23 12 358 355 358 358 355 350 344 341 339 336 335 335 334 331 331 331 332 332 331 331 331 329 325 322 320 315 310 306 303 301 299 296 294 295 297 297 293 288 287 291 294 295 292 288 287 292 296 298 301 301 296
241 238 6 358 304 225 219 290 279 249 207 192 192 187 186 191 186 173 167 171 179 177 169 166 173 180 164 139 139 161 173 181 333 2 4 351 346 352 355 352 348 343 337 334 332 331 333 335 334 333 331 330 331 331 330 330 329 327 326 324 319 316 314 312 310 312 312 310 311 313 312 308 306 301 294 291 293 294 293 290 286 285 287 288 288 288 286
273 52 38 356 317 273 180 355 313 297 270 240 225 201 191 200 203 196 193 192 184 177 179 175 164 156 156 159 168 201 220 240 312 323 332 338 342 347 345 338 331 326 325 327 329 331 333 333 331 330 328 327 328 329 327 327 326 323 322 320 316 314 313 312 312 314 311 306 305 305 301 298 298 298 293 288 286 286 285 285 284 283 282 283 282 279 279
298 311 348 359 298 294 295 301 302 300 295 285 270 237 209 202 201 205 212 206 190 183 184 188 193 190 185 188 200 213 222 254 291 302 324 339 332 325 321 316 314 318 326 332 333 330 329 327 326 324 323 322 323 323 322 321 320 319 318 315 312 311 310 309 311 311 308 306 305 302 299 295 291 289 288 285 283 284 284 285 287 288 286 284 281 277 276
284 293 296 275 269 281 289 286 277 276 279 283 278 259 238 220 203 201 207 204 197 195 194 202 210 205 197 213 227 231 248 270 280 311 334 327 311 306 309 312 319 328 334 333 330 327 324 321 320 319 318 318 318 317 318 318 318 317 316 313 309 306 305 304 304 303 301 301 301 298 295 293 290 287 285 283 285 289 290 289 289 288 286 283 279 277 276
285 290 295 289 277 271 269 263 256 251 256 267 273 278 279 266 228 204 202 200 196 196 200 213 219 206 202 226 232 228 238 251 264 312 315 303 299 307 316 322 328 333 332 328 325 322 319 317 316 315 313 313 314 314 314 315 316 314 313 310 307 304 302 300 298 296 293 292 292 292 289 288 289 289 286 285 288 290 291 292 292 289 285 283 282 281 280
299 303 302 294 285 278 277 279 275 263 253 255 265 280 287 282 260 222 206 203 194 183 187 210 220 203 190 227 237 237 242 248 265 290 282 287 302 316 323 326 327 326 325 322 319 317 314 313 312 310 309 310 314 314 312 313 314 312 309 307 304 301 300 299 297 295 292 289 289 290 289 288 287 285 284 285 286 286 286 289 290 291 289 286 284 284 284
331 318 300 286 279 278 285 298 300 287 267 251 241 240 263 276 267 236 212 208 198 180 176 193 205 199 204 219 221 231 259 277 288 286 285 297 312 316 319 321 320 319 318 314 312 312 312 311 310 309 310 313 316 316 313 313 313 312 308 305 303 301 299 299 298 297 296 297 296 294 293 293 291 288 286 285 284 283 283 283 283 285 287 287 286 287 286
290 287 280 278 281 282 279 277 279 277 269 259 248 234 234 251 253 240 223 211 200 189 182 182 187 208 235 233 216 194 215 253 268 287 304 310 307 307 311 312 311 311 309 308 309 312 312 313 314 315 315 316 315 314 314 313 312 311 307 304 302 300 298 297 297 296 298 299 299 296 295 294 292 289 286 282 280 278 279 279 280 282 284 286 287 285 281
288 286 283 285 287 284 279 270 265 270 275 277 272 257 242 240 244 244 232 215 206 197 182 173 183 208 223 220 176 154 182 235 288 312 311 304 299 301 305 307 307 306 305 308 313 315 314 315 316 314 312 312 313 314 314 312 311 310 308 305 302 299 296 295 295 294 294 294 293 291 290 288 286 284 283 281 279 276 275 274 274 275 277 279 279 277 275
307 302 299 304 304 294 287 277 266 266 273 273 270 269 268 264 264 265 246 228 229 207 175 177 199 209 190 152 130 131 121 50 360 319 298 294 296 300 301 301 302 304 307 311 314 315 315 315 313 311 310 311 313 315 313 310 309 310 308 307 305 303 299 296 293 290 289 288 287 286 285 282 280 278 278 278 279 279 278 278 276 274 276 278 278 277 278
309 314 321 327 318 308 301 288 275 276 284 275 263 259 270 278 286 292 263 239 240 220 187 190 201 181 124 113 112 89 46 5 310 293 289 288 294 306 312 311 308 309 313 315 315 317 318 316 312 311 312 312 313 313 311 309 310 309 307 306 304 302 301 299 296 292 289 286 285 284 282 281 280 278 275 274 274 274 274 275 275 275 274 275 276 277 277
325 327 333 335 324 316 314 305 292 290 291 283 273 238 183 142 89 42 344 251 226 233 225 208 178 131 106 97 94 82 6 291 280 286 291 294 306 321 329 331 329 325 324 322 318 315 314 313 312 314 315 317 319 318 314 311 309 306 304 303 301 299 299 298 297 295 291 286 283 281 279 279 279 277 273 271 269 269 269 269 270 271 270 269 269 271 272
337 327 325 328 322 315 312 311 306 287 265 257 187 144 151 133 106 78 31 25 9 313 295 273 125 121 117 105 99 185 241 264 284 299 308 324 337 336 332 332 331 327 322 318 313 312 313 316 319 320 321 326 327 322 316 314 311 307 304 303 301 301 301 298 295 292 289 286 286 287 285 281 275 273 273 274 272 272 273 273 272 271 270 269 269 270 272
324 320 319 319 315 310 309 306 298 281 265 246 205 187 174 144 133 134 128 41 347 345 25 53 70 95 106 92 58 296 269 287 313 315 318 332 342 339 330 322 319 319 317 312 313 321 328 329 327 324 324 326 326 321 317 315 313 308 305 304 302 302 301 299 294 289 285 284 286 289 287 282 277 277 282 284 282 279 277 277 277 278 279 279 279 280 281
312 312 314 316 315 310 305 300 292 280 264 245 217 202 185 163 151 143 135 140 176 102 81 84 85 85 87 80 29 325 306 308 319 323 322 324 329 330 322 313 313 319 320 318 327 338 337 330 325 325 324 322 320 317 315 312 309 307 306 305 302 301 300 299 297 294 291 288 287 289 289 285 281 281 281 281 281 280 277 275 274 274 275 276 277 277 277
303 299 298 300 302 301 295 288 280 262 237 215 196 184 175 165 152 144 154 180 193 175 133 128 121 93 88 112 241 270 290 306 323 328 325 328 330 322 314 314 322 328 330 335 341 340 333 327 327 327 324 319 315 313 312 309 307 309 309 306 302 300 300 298 297 296 295 291 288 288 288 284 280 278 278 278 278 280 280 278 275 272 269 270 273 273 273
293 291 290 289 289 290 281 264 259 241 194 167 161 164 162 161 164 167 174 181 176 139 111 104 96 93 109 162 230 265 301 345 3 347 332 333 332 319 315 324 337 341 342 345 342 335 330 330 330 327 322 319 318 318 316 312 309 310 309 306 303 300 299 297 295 293 293 293 292 291 290 285 281 280 279 277 278 280 282 284 283 278 271 266 268 271 273
289 288 287 285 283 276 256 235 230 209 177 162 155 147 153 212 202 179 158 140 125 117 115 115 115 122 140 165 242 281 352 35 33 3 337 329 322 317 320 338 359 355 348 344 338 331 329 331 330 326 325 325 324 322 318 314 312 312 309 304 300 298 295 294 292 291 291 291 291 291 290 288 288 289 287 284 285 287 288 289 291 287 279 271 268 275 284
287 282 277 276 277 272 257 234 214 189 169 157 152 158 184 211 202 170 139 124 120 119 117 121 134 152 160 146 129 26 55 63 47 357 330 323 325 327 328 349 6 360 348 341 336 330 329 331 332 331 332 331 326 323 319 316 315 313 309 302 298 297 296 296 294 292 291 290 289 288 288 288 290 292 292 291 291 291 290 291 295 295 292 288 289 298 312
284 281 277 273 272 271 274 324 256 209 173 162 167 178 188 194 183 150 129 127 130 129 126 130 141 147 136 125 122 105 96 93 57 7 348 342 343 342 343 359 5 356 343 338 336 333 333 337 338 338 340 336 329 325 323 320 316 312 308 306 305 303 302 301 300 298 298 299 297 295 294 292 292 293 293 292 292 294 296 299 302 302 302 307 316 321 319
278 277 275 270 265 258 179 148 198 220 200 187 186 183 177 170 157 140 131 129 131 134 133 125 118 116 118 125 132 131 123 112 53 14 15 6 351 343 348 359 359 348 341 341 340 338 341 345 344 342 341 337 330 327 325 323 319 318 316 316 315 314 312 311 310 308 307 307 306 305 304 303 301 300 299 298 298 302 307 311 313 313 313 321 328 329 324
277 274 274 269 263 253 218 188 187 200 211 195 178 165 158 154 147 139 137 135 134 135 131 122 117 123 130 131 131 127 115 102 49 21 19 21 24 24 18 5 353 347 346 344 340 340 346 350 347 343 340 337 334 333 332 330 327 328 327 325 325 325 324 324 323 322 320 319 318 318 319 318 315 312 310 308 307 309 311 315 319 322 323 325 328 330 328
274 271 275 272 262 252 234 207 186 178 186 176 159 152 155 155 146 139 138 137 136 138 138 133 131 135 135 128 123 116 102 98 69 29 12 6 23 46 44 19 359 354 351 344 341 345 353 353 347 344 344 343 343 343 343 341 339 336 335 334 334 333 332 331 330 329 328 327 326 327 328 327 326 325 324 322 320 320 322 325 326 325 325 327 330 330 327
269 262 268 268 259 250 243 222 194 177 168 153 139 137 144 143 137 135 137 136 136 140 142 139 138 140 133 125 122 117 112 114 101 58 24 6 6 21 32 21 4 356 349 343 345 353 358 354 350 350 350 350 352 353 354 351 347 343 342 342 340 339 338 337 335 335 335 334 333 334 335 335 334 332 330 327 326 327 330 333 332 330 328 328 328 328 325
284 281 276 265 252 240 253 242 167 145 140 133 123 122 132 134 132 133 137 138 139 143 144 143 143 138 124 116 121 121 111 110 104 76 40 21 15 20 28 24 11 0 353 352 357 2 1 356 356 356 356 357 360 2 1 357 353 351 349 346 343 340 339 338 338 340 341 340 340 341 342 342 341 339 334 332 332 333 335 337 337 337 334 329 324 323 324
326 319 296 279 252 141 150 151 127 124 129 133 130 131 138 140 137 137 140 141 140 139 139 140 143 143 140 138 131 100 74 78 86 73 42 24 12 8 18 30 24 11 3 2 6 10 8 3 1 1 2 4 7 7 6 4 2 359 354 349 345 341 339 338 338 339 340 340 343 346 346 347 349 350 347 343 341 341 342 344 344 343 341 334 324 320 319
330 328 304 278 125 118 135 143 137 133 138 142 141 142 143 139 134 135 139 140 138 139 143 148 150 149 152 155 139 115 65 32 41 47 33 13 1 359 16 47 42 16 4 1 4 8 9 8 7 8 10 11 12 12 11 9 7 5 1 356 351 348 346 344 344 343 342 343 346 349 350 352 355 356 355 352 350 350 352 352 351 351 350 343 332 324 319
337 335 332 152 143 136 129 124 124 129 131 129 130 137 139 137 137 142 144 145 148 152 154 155 155 155 161 169 148 121 88 38 18 4 351 354 1 5 17 38 37 15 6 4 4 4 6 8 10 13 16 17 16 15 14 11 8 7 6 3 358 356 355 354 353 352 352 351 351 353 354 356 358 0 1 360 359 360 1 1 359 358 357 354 351 346 338
38 29 28 50 96 114 110 105 112 130 130 127 131 141 145 144 146 150 153 157 164 165 157 151 152 152 155 165 160 134 112 98 41 331 339 359 10 12 19 37 39 24 14 11 8 6 7 9 11 14 17 19 18 16 13 10 7 6 7 7 5 3 1 359 359 1 2 1 2 3 4 3 4 6 9 10 9 8 8 9 8 5 2 358 356 356 351
40 49 57 69 87 104 114 129 145 149 142 138 146 159 162 156 153 155 160 164 167 162 153 149 149 142 132 133 138 127 115 115 124 312 336 3 6 3 13 49 64 50 33 23 17 12 10 10 12 16 18 18 17 16 14 11 8 8 9 11 12 11 10 9 8 8 8 9 9 11 13 13 13 13 16 18 17 15 15 16 17 18 17 13 8 8 10
31 45 64 87 104 111 121 138 145 147 149 152 159 164 159 148 146 154 160 159 157 156 153 147 142 137 128 118 95 65 63 79 323 319 346 11 8 353 357 22 45 47 35 24 19 17 15 14 15 19 21 19 17 17 17 15 13 14 15 16 15 14 15 17 17 17 16 16 16 16 19 21 21 19 20 21 20 19 20 21 22 25 28 31 35 42 47
Height
764 762 762 757 755 756 754 747 742 740 744 750 754 756 756 750 761 785 789 782 788 788 781 783 784 783 788 790 790 792 792 792 794 796 799 801 802 803 804 805 806 807 809 809 809 809 808 807 805 802 803 808 811 809 806 806 807 806 807 808 809 811 810 811 817 821 822 823 824 826 824 822 821 820 821 823 824 825 826 827 829 830 831 832 833 835 837
764 763 764 760 758 758 757 751 745 747 751 752 753 753 750 751 760 770 776 785 790 785 781 782 779 781 786 788 788 791 793 795 796 797 800 801 803 804 805 806 807 809 810 811 813 814 814 813 811 809 810 813 815 812 807 806 807 806 807 808 810 813 814 815 818 819 819 820 821 821 820 819 819 819 819 820 821 823 825 827 828 829 830 831 831 832 834
775 767 764 764 763 762 762 758 752 755 758 756 755 752 748 756 769 770 771 783 788 781 777 779 781 783 786 790 793 793 794 797 798 799 802 802 803 805 806 807 808 809 810 812 813 814 815 816 815 814 814 814 815 813 809 808 807 807 808 808 808 810 812 815 817 818 819 819 820 818 817 817 818 819 819 818 818 820 822 825 826 827 828 829 829 830 831
785 768 766 768 764 763 768 765 759 760 763 760 756 754 753 761 772 777 780 787 787 780 777 782 785 787 791 796 798 796 796 798 800 802 803 803 804 805 806 808 808 808 810 811 812 813 814 814 814 814 814 814 813 812 811 809 808 809 810 809 807 807 808 812 815 817 817 818 818 817 816 816 817 818 818 818 818 819 820 821 822 823 825 826 827 828 828
787 768 766 769 769 780 784 770 760 759 760 758 756 759 764 765 770 783 789 787 783 779 780 786 790 792 796 799 799 800 802 801 802 803 803 804 805 805 806 808 808 809 810 810 812 812 812 813 813 813 813 813 813 812 811 809 808 810 811 811 809 807 807 810 814 815 815 815 816 816 815 816 817 817 818 818 818 819 819 820 820 820 822 823 823 824 824
785 769 765 774 787 798 788 764 753 753 754 757 759 764 769 770 776 787 785 779 780 781 782 788 793 794 796 799 800 802 804 805 806 805 804 805 805 806 807 807 808 810 810 810 811 811 812 813 813 813 813 813 813 813 813 811 811 812 812 812 810 808 808 809 812 813 814 815 817 817 815 815 816 818 819 819 819 819 818 819 820 821 822 822 822 822 822
782 774 778 798 807 794 773 759 756 756 756 758 762 767 768 769 780 787 782 780 784 784 783 787 792 794 795 797 800 801 803 805 807 807 808 807 806 807 809 809 810 811 810 811 811 810 811 812 812 813 814 813 814 815 815 815 814 814 814 813 812 811 810 810 811 813 814 816 819 819 817 816 816 817 818 818 818 817 816 816 818 819 821 822 822 823 823
783 784 792 806 802 781 768 768 766 764 765 766 772 780 778 773 778 783 782 784 784 783 785 788 792 796 795 796 799 800 802 804 806 807 809 808 808 808 808 809 811 812 812 812 812 811 811 811 812 813 814 814 815 815 816 816 816 816 816 815 814 813 812 811 812 813 815 817 818 818 818 817 816 816 816 817 817 816 815 816 816 817 818 819 819 820 820
782 786 790 793 793 786 781 778 772 768 770 770 775 786 785 777 777 780 783 787 787 786 788 790 793 795 797 803 805 800 801 806 806 807 809 809 809 809 808 810 811 812 814 813 812 812 812 812 813 813 814 815 815 816 816 816 816 816 816 816 816 816 815 814 813 814 816 816 816 817 818 818 817 816 815 815 815 816 816 817 817 816 816 816 816 817 818
781 786 791 793 799 799 787 777 772 769 769 768 772 783 788 782 778 780 784 789 790 790 792 794 795 798 805 813 809 801 802 806 805 807 809 809 810 810 810 811 811 813 814 813 813 813 812 814 815 814 814 815 815 816 816 816 816 816 817 817 818 818 818 817 816 816 816 816 815 816 817 817 816 815 814 814 814 815 816 816 816 816 815 815 815 815 816
787 791 797 794 799 800 787 778 775 772 771 770 774 790 796 785 780 782 786 792 794 793 793 794 795 802 811 815 809 802 803 805 805 808 809 809 811 811 811 812 813 814 814 814 813 813 813 815 815 814 815 816 816 817 817 816 816 816 817 818 818 818 819 818 818 818 817 817 816 816 816 816 815 815 814 812 812 813 814 814 814 814 814 814 813 814 815
791 794 796 790 793 795 785 779 778 774 771 773 787 805 800 781 779 785 786 790 793 791 792 793 795 802 808 810 805 800 800 805 809 811 811 812 813 812 812 814 814 814 814 814 814 813 814 816 815 815 816 816 817 818 818 817 817 817 818 819 818 819 819 818 818 818 817 817 816 815 815 814 813 813 812 811 811 811 811 811 812 812 813 813 812 812 813
790 793 794 790 792 790 781 778 779 775 775 784 800 808 794 778 779 783 782 785 787 787 790 793 797 801 803 804 804 801 802 808 812 812 813 815 814 814 815 815 815 815 815 815 815 815 815 816 815 815 816 816 817 818 818 818 818 818 818 819 818 819 818 818 818 817 815 815 814 813 813 812 812 812 811 811 811 810 809 809 809 810 811 811 811 811 811
788 789 788 790 794 789 779 779 779 778 787 798 801 796 786 781 783 783 783 783 783 786 791 793 798 802 800 801 805 806 808 812 813 814 816 816 816 817 817 816 817 817 817 817 817 816 816 816 816 816 816 817 817 818 818 819 819 819 819 819 819 819 818 817 817 816 815 815 814 813 812 810 810 811 810 810 810 809 808 807 807 809 809 809 810 810 809
788 790 790 796 800 789 778 782 785 785 793 798 793 787 786 786 787 788 789 787 784 788 793 794 799 803 803 804 808 810 812 814 814 816 818 818 819 819 817 818 818 819 819 819 819 818 818 817 817 817 817 817 818 818 818 819 819 819 819 819 818 818 818 817 817 816 816 815 814 814 812 811 810 810 809 809 809 808 807 806 806 807 807 808 808 808 807
786 795 797 798 795 784 778 784 788 788 789 788 786 787 789 790 790 792 794 793 791 792 795 797 801 806 807 810 812 813 814 815 815 818 819 819 820 819 818 820 820 820 821 821 820 820 819 819 819 819 819 819 818 819 819 819 819 819 819 818 818 818 817 817 817 817 816 815 815 814 813 812 811 809 808 808 807 807 806 805 805 805 805 806 807 807 806
783 789 791 789 785 780 779 782 784 785 786 785 785 788 790 792 794 793 795 798 798 798 800 803 806 808 810 812 813 814 816 816 817 819 819 820 821 820 820 821 821 822 822 821 821 821 820 821 821 820 820 820 820 820 820 819 819 819 819 818 818 817 817 817 816 816 815 814 814 813 812 811 810 809 809 808 807 806 805 804 804 804 804 805 805 805 805
781 781 780 780 782 782 781 782 783 785 786 786 787 789 790 792 793 793 795 799 801 803 806 807 808 810 811 812 814 815 816 817 819 820 821 821 822 822 822 822 822 822 822 821 822 821 821 822 822 821 822 822 821 821 821 820 820 819 819 818 818 818 817 816 816 815 814 813 813 812 811 810 809 808 808 807 806 805 804 803 803 803 803 804 804 803 804
788 786 779 776 781 783 781 782 784 786 787 787 788 790 790 791 793 795 797 799 802 805 807 809 810 811 811 814 816 817 818 819 820 821 822 822 823 823 823 823 823 823 823 823 823 822 822 823 822 822 822 822 821 821 821 820 820 819 819 819 818 817 817 816 815 814 813 812 811 810 809 808 806 805 805 804 804 803 803 803 803 802 802 802 802 802 802
788 784 778 776 779 780 780 782 785 786 788 788 788 789 790 791 793 796 798 800 803 805 807 809 810 811 812 814 816 817 818 820 820 821 822 822 823 823 823 823 823 823 823 823 824 823 823 823 822 822 822 821 821 821 820 820 819 819 819 818 818 817 816 815 814 813 812 811 810 808 807 806 805 804 803 802 802 802 802 803 802 802 802 801 801 802 801
785 782 780 782 783 783 782 783 783 784 787 789 790 792 791 792 794 797 799 801 803 804 806 808 809 811 812 813 815 817 818 819 820 821 822 822 822 823 822 823 823 823 823 823 823 823 823 823 822 822 821 821 821 820 820 819 819 818 818 818 817 816 815 814 812 811 810 809 808 807 806 804 804 803 802 801 801 801 801 802 802 801 801 800 801 801 799
793 793 792 792 792 791 789 787 785 784 784 786 789 792 793 794 795 797 800 802 803 804 805 807 808 811 812 813 815 817 817 818 820 820 821 822 822 822 822 823 823 823 823 823 822 822 822 822 822 821 821 820 820 819 819 819 818 818 817 817 816 816 814 813 812 811 810 809 808 807 806 805 803 802 801 800 800 799 799 800 800 800 799 799 799 799 797
794 795 794 794 795 793 790 789 789 786 783 784 787 789 791 793 793 794 797 801 803 804 806 807 809 810 812 813 815 815 816 817 819 819 821 821 822 823 823 823 823 823 822 822 821 821 821 821 821 821 820 820 819 819 818 818 817 817 816 816 815 814 814 813 812 811 810 810 808 808 807 805 804 802 800 799 799 798 797 797 796 796 796 795 795 795 794
791 790 790 793 795 793 790 789 790 789 787 786 787 786 788 790 791 793 795 797 800 803 805 806 808 809 810 812 813 813 815 816 817 818 820 821 822 823 823 823 822 822 821 821 821 821 821 821 821 820 820 820 819 818 818 817 816 816 815 815 814 813 813 812 812 811 810 809 808 807 806 805 804 802 800 798 796 795 795 794 793 792 792 792 792 792 791
790 789 789 791 793 792 791 790 790 789 789 789 788 787 786 787 788 791 792 794 797 801 803 804 806 806 808 809 811 811 813 814 816 817 819 820 821 821 821 821 821 821 821 821 821 821 821 821 820 820 820 819 818 818 817 816 816 815 814 814 813 812 812 811 810 810 809 808 807 806 805 803 802 801 799 796 793 791 791 791 790 789 789 789 788 788 787
789 788 788 790 790 790 790 790 789 789 789 790 790 790 788 786 786 788 790 793 795 798 800 802 803 805 807 809 809 810 812 813 814 816 818 819 819 819 819 820 820 820 821 821 821 821 821 820 820 820 819 818 818 817 816 816 815 814 813 812 812 811 810 809 808 807 807 806 805 804 803 802 801 799 797 796 793 791 789 787 786 786 785 785 785 784 784
789 788 789 791 792 790 790 790 789 788 788 789 791 792 792 791 789 787 788 792 794 796 799 802 803 805 807 808 808 809 810 811 813 815 816 817 817 818 818 819 819 820 820 820 820 820 820 820 819 819 818 817 817 816 816 815 814 813 812 811 810 809 808 807 806 805 804 803 803 802 801 800 799 797 796 794 792 791 788 786 785 783 782 782 782 781 781
791 791 792 793 793 791 790 790 790 789 789 789 790 791 793 795 792 788 787 790 792 795 798 801 803 805 807 808 809 809 810 811 813 814 815 816 817 818 818 818 819 819 819 819 819 819 819 819 818 818 817 817 816 815 815 814 813 812 811 810 808 807 806 805 804 803 802 801 801 800 799 798 797 796 794 792 791 789 787 785 783 781 780 779 779 778 777
792 791 791 790 789 789 789 789 789 788 787 787 787 788 792 794 793 789 786 788 791 794 796 799 802 804 805 806 807 808 810 812 813 814 815 816 817 818 818 818 818 818 818 818 818 818 818 817 817 816 816 816 815 815 814 813 812 811 810 808 807 805 804 803 803 802 801 800 799 799 798 797 795 794 792 790 789 787 785 783 781 780 778 777 776 775 774
789 789 789 788 787 787 787 787 788 788 786 786 786 788 789 790 789 787 786 787 790 792 794 797 800 802 804 805 806 808 810 812 813 815 816 817 818 818 818 818 818 817 817 817 817 817 817 816 816 816 816 815 815 814 813 812 811 810 809 807 805 804 803 802 801 800 799 799 798 797 796 795 794 792 790 788 786 784 782 781 779 778 776 775 773 772 770
787 786 786 786 785 785 785 785 785 786 786 786 787 788 788 788 788 789 790 790 791 791 794 797 799 800 802 804 806 808 810 811 813 816 817 818 818 818 818 817 817 817 816 816 816 816 816 816 816 816 815 814 814 813 812 811 810 809 808 806 804 802 801 800 799 798 797 796 795 795 794 792 791 790 788 786 784 782 780 778 776 775 773 772 771 769 767
787 785 784 785 785 784 784 784 784 785 787 787 787 788 789 790 791 791 792 794 794 794 795 797 798 799 801 803 805 807 809 812 814 816 817 817 817 817 817 817 817 817 816 816 816 816 816 815 815 815 814 814 813 812 811 811 809 808 807 805 803 801 799 798 797 796 795 794 793 792 791 790 788 787 785 783 782 780 778 776 774 773 771 770 768 766 766
787 787 786 786 785 784 784 784 784 785 788 789 789 789 789 790 791 792 794 795 796 797 796 796 796 798 800 802 804 807 810 813 814 815 816 817 817 817 818 818 817 817 817 816 816 816 815 815 814 813 813 812 812 811 810 810 808 807 805 803 801 800 798 797 796 794 792 791 790 789 788 787 785 784 782 780 778 777 775 774 772 770 768 767 765 764 763
786 786 786 784 784 784 783 783 783 784 786 788 789 789 789 790 791 793 795 796 797 799 799 797 797 798 800 802 805 808 811 813 814 815 816 817 817 818 818 818 817 817 817 817 816 815 815 814 814 813 812 811 810 810 809 808 806 805 803 801 800 798 796 795 794 792 791 789 787 786 785 784 782 780 779 777 775 774 772 770 769 767 765 763 762 761 760
785 784 783 782 781 781 781 781 781 782 783 784 786 787 789 789 790 793 796 797 799 800 800 800 799 800 801 804 807 809 810 812 814 815 816 817 818 818 818 818 818 817 817 816 816 815 814 814 813 812 811 810 809 808 807 806 804 803 802 800 798 796 794 793 791 789 788 786 785 784 783 781 779 777 776 774 773 772 770 768 766 765 763 761 760 758 758
785 784 783 782 781 780 780 780 780 781 781 782 783 785 787 789 789 792 795 798 800 801 802 802 803 802 803 805 808 810 811 812 814 815 816 817 818 819 818 818 817 817 816 815 815 814 814 813 812 811 810 809 807 806 805 804 803 802 800 798 796 794 792 790 788 786 785 783 782 781 779 778 776 775 773 772 771 769 767 766 764 762 761 759 758 757 756
785 784 783 782 780 779 779 780 780 780 781 781 782 784 786 788 789 792 794 797 800 801 801 802 803 803 805 808 810 810 812 813 814 815 817 817 818 818 818 817 816 816 815 815 815 814 813 812 811 810 809 807 806 805 804 803 802 800 798 797 795 793 791 789 787 785 783 781 779 777 775 774 773 771 769 768 767 765 764 762 761 759 758 756 755 754 753
784 783 782 781 780 778 778 779 780 780 780 781 783 785 786 788 791 792 793 795 797 798 799 801 803 804 807 809 810 810 812 813 814 816 817 817 818 818 817 816 816 816 815 815 815 814 813 812 811 809 808 807 806 805 803 803 801 799 797 796 794 792 790 788 785 783 781 778 776 775 773 771 769 767 765 764 763 762 760 759 758 756 755 753 752 751 750
783 782 781 780 779 777 777 778 779 780 780 782 784 786 787 790 792 793 793 794 796 798 799 802 804 806 807 809 810 811 812 813 815 816 817 817 818 817 816 816 816 816 816 816 815 814 813 812 810 809 808 807 806 804 803 802 800 798 796 795 792 790 788 786 783 781 779 776 774 772 770 768 767 764 762 760 759 758 757 756 755 754 752 750 748 748 747
781 780 779 779 778 776 775 776 777 779 780 781 783 785 788 790 792 792 792 794 797 799 800 802 804 806 808 809 810 812 813 814 815 816 817 817 817 816 815 815 816 816 816 815 815 814 812 811 810 808 807 806 805 804 802 801 799 797 795 793 790 788 786 783 781 779 777 774 772 770 768 766 764 762 760 758 756 755 754 753 752 751 750 749 747 746 746
780 779 778 777 776 775 774 776 778 779 779 780 782 785 787 789 790 790 791 794 797 799 801 803 805 806 808 809 811 812 813 814 815 816 816 816 816 815 815 815 815 815 815 815 814 812 811 810 808 807 806 805 804 803 801 799 797 795 792 790 788 786 784 782 780 777 775 773 771 768 766 764 762 760 758 757 754 753 751 750 749 749 749 748 746 745 745
778 778 776 776 775 774 774 776 778 780 780 780 781 783 785 787 788 789 792 795 798 800 802 804 805 807 808 810 811 812 813 813 814 815 815 815 815 815 815 815 815 815 815 814 812 811 810 809 808 807 806 804 802 800 798 796 794 792 790 788 786 784 782 781 779 776 774 772 770 767 765 763 761 759 757 755 754 752 750 749 748 748 747 746 746 745 744
777 776 775 775 774 773 773 775 776 777 779 780 781 782 784 785 787 789 792 795 798 800 803 805 806 807 809 810 810 811 812 813 813 813 814 814 814 815 815 815 815 814 814 812 811 810 809 808 807 806 805 803 800 798 796 794 792 791 789 788 785 784 782 780 778 776 774 771 769 766 764 762 760 758 757 755 753 752 750 748 747 747 746 745 745 744 743
777 775 774 774 773 772 772 773 773 775 779 780 780 781 783 785 787 790 793 795 798 800 802 804 806 807 808 809 810 811 811 812 812 813 813 813 813 814 814 814 814 813 813 812 811 809 809 808 807 805 803 800 798 796 794 793 792 790 789 787 785 783 782 780 778 776 774 772 769 767 764 763 761 759 757 755 753 751 750 748 747 746 745 744 744 744 743
774 773 773 774 773 771 770 770 771 775 778 780 781 782 784 786 789 791 794 796 799 801 803 804 806 807 808 809 809 810 810 811 811 812 812 812 812 812 813 813 813 813 812 811 810 808 808 807 805 803 801 799 796 795 793 792 791 790 788 786 785 783 782 780 778 776 774 772 770 767 765 763 761 759 758 756 754 751 749 748 746 745 744 743 743 743 743
772 771 772 773 772 771 770 770 772 774 778 780 782 784 786 788 791 794 796 797 799 801 803 805 806 807 808 809 809 809 809 809 810 811 811 811 811 812 812 812 812 812 811 810 809 808 807 806 804 802 800 797 796 794 793 792 791 789 788 787 785 784 782 781 779 777 775 773 771 768 766 764 762 760 758 755 753 751 749 747 746 745 744 743 742 742 742
772 772 773 772 771 771 773 774 774 776 779 781 783 786 788 791 793 795 797 798 800 802 803 805 806 807 808 808 808 808 808 808 809 809 810 810 811 811 811 811 811 811 810 809 808 807 806 805 803 801 799 797 795 794 793 792 791 790 789 788 787 785 783 781 779 777 775 773 771 769 767 764 762 760 758 756 753 751 749 747 746 745 744 743 742 742 742
773 773 773 773 772 773 774 776 776 778 780 782 785 787 789 791 793 795 797 799 800 802 804 805 806 807 807 807 808 808 808 808 808 809 809 809 809 809 809 810 810 809 809 808 807 806 805 804 802 800 798 797 796 795 794 793 792 791 790 789 788 786 784 782 780 778 776 774 771 769 767 765 763 761 759 757 755 753 750 749 747 746 745 744 743 742 742
774 774 773 773 773 774 774 776 778 779 781 783 785 788 789 791 793 795 797 799 800 801 803 804 805 806 806 807 807 807 808 808 808 808 808 808 808 808 808 808 808 808 808 807 806 806 805 803 802 800 799 797 796 795 794 794 793 791 790 789 788 787 785 783 781 779 777 774 772 770 768 766 764 762 760 758 756 754 752 750 749 747 746 745 744 743 743
776 776 775 774 775 776 777 779 781 783 783 785 788 790 791 792 793 794 796 797 799 800 801 802 803 804 805 805 806 807 807 808 808 808 808 807 807 807 807 807 807 807 807 806 806 805 804 803 802 800 799 798 797 796 795 794 793 792 791 790 788 787 785 783 781 779 777 775 773 771 770 768 766 764 762 760 758 756 754 752 751 749 748 747 745 744 744
780 779 779 780 780 781 781 782 784 785 785 787 789 790 791 791 792 793 794 796 797 798 799 801 802 803 803 804 804 805 806 807 807 807 807 806 806 806 806 806 806 806 806 806 805 805 804 803 802 801 800 799 798 797 796 795 794 793 791 790 789 788 786 784 782 781 779 777 775 773 770 768 767 765 763 761 759 758 756 754 753 751 750 748 747 746 745
783 783 783 783 784 784 784 784 784 785 786 788 789 790 790 791 793 794 795 795 796 797 798 799 800 801 802 803 803 804 804 805 805 805 805 805 806 806 806 805 805 805 805 805 805 805 804 803 802 801 800 800 799 798 797 796 795 793 792 791 790 788 787 785 784 782 780 779 777 774 772 770 768 767 765 763 761 759 758 756 755 754 752 751 749 748 746